Main page
METAR-TAF:

METAR-TAF

Airports :

Sania Ramel Airport

Tétouan, Morocco

latitude: 35-35N, longitude: 005-20W, elevation: 10 m

Current weather observation

The report was made 48 minutes ago, at 17:00 UTC
Wind 5 kt from the East
Temperature 18°C
Humidity 77%
Pressure 1014 hPa
Visibility: 8000 m
Broken clouds at a height of 1600 ft

METAR: GMTN 151700Z 08005KT 8000 BKN016 18/14 Q1014 NOSIG

Time: 17:48 (17:48 UTC)


TAF: missing

Weather observations and forecasts of more than 4000 airports (METAR and TAF reports).

The available stations are represented by yellow and red dots on the map.

Hover mouse over dot to see the name of the station.

Then click to see weather observations and forecasts.

To change the map : click on the green buttons with a black cross to zoom in, on the green button with a dash to zoom out, or on the green arrows for adjacent maps.


METAR-TAF: